Regional Weather Roundup
Issued by NWS

Home | Current Version | Previous Version | Text Only | Print | Product List | Glossary On
Versions: 1 2 3 4 5 6 7 8 9 10 11 12 13 14 15 16 17 18 19 20 21 22 23 24 25 26 27 28 29 30 31 32 33 34 35 36 37 38 39 40 41 42 43 44 45 46 47 48 49 50
000
ASUS43 KDMX 231706
RWRIA

WEATHER ROUNDUP FOR IOWA
NATIONAL WEATHER SERVICE DES MOINES IA
1100 AM CST FRI FEB 23 2018

NOTE: "FAIR" INDICATES FEW OR NO CLOUDS BELOW 12,000 FEET WITH NO
SIGNIFICANT WEATHER AND/OR OBSTRUCTIONS TO VISIBILITY.

* - THESE STATIONS ARE NOT NWS STATIONS...THUS NOT UNDER NWS
QUALITY CONTROL.  THEY ALSO DO NOT REPORT WEATHER SUCH
AS PRECIPITATION OR FOG.

IAZ001>003-012>014-020>022-031>034-043>046-231800-
   NORTHWEST IOWA

CITY           SKY/WX    TMP DP  RH WIND       PRES   REMARKS
CARROLL *      CLOUDY    23  21  93 W9        30.27R WCI  13
CHEROKEE *     CLOUDY    21  19  93 NW7       30.27R WCI  13
DENISON *      CLOUDY    23  21  93 NW9       30.30R WCI  13
LE MARS *      CLOUDY    19  18  93 NW9       30.29R WCI   9
ORANGE CITY *  CLOUDY    19  18  93 NW9       30.26R WCI   9
SHELDON *      CLOUDY    19  18  93 NW12      30.24R WCI   7
SIOUX CITY     CLOUDY    20  17  88 NW16      30.29S WCI   6
SPENCER        CLOUDY    22  17  81 NW13      30.23S WCI  10
STORM LAKE *   MOSUNNY   19  18  93 NW14      30.24R WCI   6
$$

IAZ055>058-069>071-079>083-090>094-231800-
   SOUTHWEST IOWA

CITY           SKY/WX    TMP DP  RH WIND       PRES   REMARKS
ATLANTIC *     MOSUNNY   28  27  93 NW7       30.30R WCI  21
AUDUBON *      SUNNY     28  25  86 CALM      30.30R
CLARINDA *     MOSUNNY   32  30  93 VRB5      30.34R WCI  27
COUNCIL BLFS * SUNNY     27  27 100 NW7       30.31R WCI  19
CRESTON *      PTSUNNY   30  27  86 NW12      30.30R WCI  21
HARLAN  *      SUNNY     25  25 100 W6        30.35R WCI  18
LAMONI         CLOUDY    32  26  78 W8        30.29R WCI  25
RED OAK *      PTSUNNY   30  27  86 W6        30.32R WCI  24
SHENANDOAH *   SUNNY     32  27  80 W6        30.33S WCI  26
$$

IAZ047>049-059>061-072>074-084-231800-
   CENTRAL IOWA

CITY           SKY/WX    TMP DP  RH WIND       PRES   REMARKS
AMES           PTSUNNY   30  24  78 W9        30.26R WCI  22
ANKENY *       MOSUNNY   32  25  74 W12       30.30R WCI  23
BOONE *        MOSUNNY   28  25  86 MISG      30.24R
CHARITON *     CLOUDY    34  28  80 NW10      30.26R WCI  26
DES MOINES     MOSUNNY   32  25  75 W12       30.29R WCI  23
GRINNELL*      MOSUNNY   32  27  80 W13       30.26R WCI  22
KNOXVILLE *    MOSUNNY   34  25  69 W9        30.27R WCI  26
MARSHALLTOWN   MOSUNNY   31  26  82 W13       30.24R WCI  21
NEWTON *       PTSUNNY   32  27  80 NW13      30.26R WCI  22
PELLA *        SUNNY     34  27  74 W9        30.28S WCI  27
PERRY *        PTSUNNY   30  27  90 W9        30.28R WCI  21
$$

IAZ004>006-015-016-023>025-035-036-231800-
   NORTH CENTRAL IOWA

CITY           SKY/WX    TMP DP  RH WIND       PRES   REMARKS
ALGONA *       SUNNY     23 N/A N/A W12       30.23R WCI  12
CLARION *      CLOUDY    23  23 100 NW15      30.24R WCI  10
ESTHERVILLE    SUNNY     22  17  81 W15       30.22R WCI   9
FORT DODGE *   CLOUDY    23  19  85 NW14      30.25R WCI  11
MASON CITY       N/A     23  19  85 W16       30.22R WCI  10
FOREST CITY *  FAIR      25  21  86 W10       30.21R WCI  15
WEBSTER CITY * CLOUDY    23  21  93 NW16      30.23R WCI  10
IOWA FALLS *   CLOUDY    27  25  89 W12       30.25R WCI  17
$$

IAZ007>011-017>019-026>030-037>042-050>054-066-231800-
   NORTHEAST IOWA

CITY           SKY/WX    TMP DP  RH WIND       PRES   REMARKS
CEDAR RAPIDS   PTSUNNY   34  27  75 W14       30.23R WCI  25
CHARLES CITY * PTSUNNY   27  27 100 W17       30.20R WCI  14
CLINTON *      CLOUDY    36  33  89 W17       30.22R WCI  26
DECORAH *      CLOUDY    28  27  93 W8G16     30.16R WCI  20
DUBUQUE        CLOUDY    34  28  79 W12       30.19R WCI  25
MONTICELLO *   PTSUNNY   36  30  80 W15       30.21R WCI  26
OELWEIN *      CLOUDY    28  28 100 W14       30.21R WCI  17
WATERLOO       PTSUNNY   31  26  82 W9        30.23R WCI  23
$$

IAZ064-065-067-068-078-231800-
   EAST CENTRAL IOWA

CITY           SKY/WX    TMP DP  RH WIND       PRES   REMARKS
DAVENPORT      CLOUDY    37  32  82 W14G20    30.25R WCI  28
IOWA CITY      FAIR      38  29  70 W15       30.25S WCI  29
MT. PLEASANT * CLOUDY    34  32  93 W7        30.27R WCI  28
MUSCATINE *    PTSUNNY   37  32  81 W10       30.26S WCI  30
QUAD CITIES    CLOUDY    37  32  82 W15       30.23R WCI  28
$$

IAZ062-063-075>077-085>089-095>099-231800-
   SOUTHEAST IOWA

CITY           SKY/WX    TMP DP  RH WIND       PRES   REMARKS
BURLINGTON     CLOUDY    36  32  85 W10       30.26S WCI  28
FAIRFIELD *    CLOUDY    37  30  75 W13       30.26R WCI  29
FORT MADISON * CLOUDY    36  34  93 W9        30.27S WCI  29
KEOKUK *       CLOUDY    36  34  93 W9        30.27S WCI  29
OSKALOOSA *    FAIR      34  29  82 W10       30.26S WCI  26
OTTUMWA        CLOUDY    36  35  96 W10       30.26S WCI  28
WASHINGTON *   CLOUDY    37  34  87 W13       30.26S WCI  29
$$

ABBREVIATIONS USED IN REMARKS
   TC - TEMPERATURES IN CELSIUS
  WCI - WIND CHILL INDEX
   HX - HEAT INDEX
  VSB - VISIBILITY
$$




USA.gov is the U.S. government's official web portal to all federal, state and local government web resources and services.